Showing default

YAOGAN-43 02B, 60946

Orbit data source: Space-Track

YAOGAN-43 02B, 60946 is a payload satellite owned by PLA GAD (CN) in LEO that was launched on Tue, 03 Sep 2024 UTC via a CHANG ZHENG 4B launch vehicle from the Xichang Space Center, China (XSC). Payload-class satellites include a variety of spacecraft equipped with specific instruments for various scientific and technological missions. These include communications satellites like Starlink; space stations such as the ISS; scientific satellites like the Hubble; Earth observation satellites from companies like Planet Labs, Umbra, and HawkEye 360; GPS; miniature CubeSats for education and research; and military/defense satellites.

Loading next visibility...
Identifier
60946, 2024-156B
Orbit
LEO
Country
Flag of CNCN / PRC
Related business
Manufacturer
SAST
Mission
Operational Defense Communications
Bus & Motor
Unknown
Mass
~300 kg wet, ~300 kg dry
Launch date (UTC)
2024-09-03 (2 years ago)
Launch vehicle
CHANG ZHENG 4B
Launch site
Xichang Space Center, China (XSC)
Object type
Payload
Rocket body
Debris
Shape & HBR
Box + 2 Pan, 2.5 m
Radar Cross Section
11.063 m², Large (>1 m²)

Expand to show TLE details & history
Last TLE update: 7 hours ago

TLE from 7 hours ago
0 YAOGAN-43 02B
1 60946U 24156B   26256.74228581  .00008604  00000-0  35877-3 0  9992
2 60946  34.9965   1.0705 0000681 256.3589 103.7050 15.22953784112959
Epoch: 2026-09-13T17:48Z
TLE epoch observation values (Epoch: 2026-09-13T17:48:53.493Z)
Latitude
-0.00002°
Longitude
101.11501°
Altitude
495.954 km
Speed
7.619 km/s
True Right ascension
00h 04m 16s
True Declination
0° 00' 00"
Sunlit
Object was in full shadow at epoch
Visualization orbit readout
Latitude
Unknown
Longitude
Unknown
Altitude
Unknown
Speed
Unknown
Apparent Right ascension
Unknown
Apparent Declination
Unknown
Sunlit
N/A
Visualization observer readout
Local Sidereal Time
16:55:45
Azimuth
Unknown
Elevation
Unknown
Doppler factor
Unknown
Orbital elements
Apogee altitude
500.656 km
Perigee altitude
499.719 km
Semi-major axis
6,878.324 km
Eccentricity
0.00007
Inclination
34.9965°
RAAN
1.0705°
Arg. of periapsis
256.3589°
True anomaly
103.71258°
Mean anomaly
103.705°
Eccentric anomaly
103.70879°
Mean motion
3.80469 °/min
Orbital period
94.62 mins
BSTAR
0.00035877
Loading maneuver chart data...
Computing Atmospheric mass density...
Loading historical data...
Loading historical data...
Loading historical data...
Loading historical data...
Loading historical data...
Loading historical data...
Loading historical data...

Documentation

Showing up to 5 results
|